CAPE
nan nan nan nan nan 0 0 nan 0 0 nan nan 0 0 nan nan nan nan nan nan nan 0 0 nan nan nan nan nan nan nan nan nan nan nan nan nan nan nan nan nan nan nan nan nan nan nan nan nan nan nan nan nan nan nan nan nan nan nan nan nan nan 0 3 5 5 6 7 7 5 5 3 0 nan nan nan nan nan nan nan nan nan nan nan nan nan nan
nan nan nan nan nan nan nan nan nan nan 0 nan nan nan nan nan nan nan 0 nan nan nan 0 nan nan nan nan nan nan nan nan nan nan nan nan nan nan nan nan nan nan nan nan nan nan nan nan nan nan nan nan nan nan nan nan nan nan nan nan nan nan nan 2 6 6 8 8 8 5 5 2 nan nan nan nan nan nan nan nan nan nan nan nan nan nan nan
nan nan nan nan nan nan nan nan nan nan nan 0 nan nan nan nan nan nan 0 0 0 nan nan nan nan 0 0 nan nan nan nan nan nan nan nan nan nan nan nan nan nan nan nan nan nan nan nan nan nan nan nan nan nan nan nan nan nan nan nan nan nan nan 1 5 5 8 10 10 6 6 1 nan nan nan nan nan nan nan nan nan nan nan nan nan nan nan
nan nan nan nan nan nan nan nan nan nan 0 0 nan nan nan nan nan nan nan nan nan nan nan 0 0 0 0 0 nan nan nan nan nan nan nan nan nan nan nan nan nan nan nan nan nan nan nan nan nan nan nan nan nan nan nan nan nan nan nan nan nan nan 1 3 3 6 8 7 3 3 nan nan nan nan nan nan nan nan nan nan nan nan nan nan nan nan
nan nan nan nan nan nan nan nan nan nan nan nan nan nan nan nan nan nan nan nan nan nan nan nan nan nan 0 nan nan nan nan nan nan nan nan nan nan nan nan nan nan nan nan nan nan nan nan nan nan nan nan nan nan nan nan nan nan nan nan nan nan nan 1 2 2 4 4 2 nan nan nan nan nan nan nan nan nan nan nan nan nan nan nan nan nan nan
nan nan nan nan nan nan nan nan nan nan nan nan nan nan nan nan nan nan nan nan nan nan nan nan nan nan 0 nan nan nan nan nan nan nan nan nan nan nan nan nan nan nan nan nan nan nan nan nan nan nan nan nan nan nan nan nan nan nan nan nan nan 0 1 1 1 1 1 nan nan nan nan nan nan nan nan nan nan nan nan nan nan nan nan nan nan nan
nan nan nan nan nan nan nan nan nan nan nan nan nan nan nan nan nan nan nan nan nan nan nan nan nan nan 0 0 nan nan nan nan nan nan nan nan nan nan nan nan nan nan nan nan nan nan nan nan nan nan nan nan nan nan nan nan nan nan nan nan nan 0 1 2 2 2 1 nan nan nan nan nan nan nan nan nan nan nan nan nan nan nan nan nan nan nan
nan nan nan nan nan nan nan nan nan nan nan nan nan nan nan nan nan nan nan nan nan nan nan nan nan nan nan nan 0 0 nan nan nan nan nan nan nan nan nan nan nan nan nan nan nan nan nan nan nan nan nan nan nan nan nan nan nan nan nan 1 1 2 4 4 4 4 3 2 0 0 nan nan nan nan nan nan nan nan nan nan nan nan nan nan nan nan
nan nan nan nan nan nan nan nan nan nan nan nan nan nan nan nan nan nan nan nan nan nan nan nan nan nan nan nan nan nan 1 2 0 0 nan nan nan nan 0 nan nan nan nan nan nan nan nan nan nan nan 0 1 1 1 0 0 0 0 1 2 2 3 4 4 4 5 4 3 0 0 nan nan nan nan nan nan nan nan nan nan nan nan nan nan nan nan
nan nan nan nan nan nan nan nan nan nan nan nan nan nan nan nan nan nan nan nan nan nan nan nan nan nan nan nan nan nan 0 2 7 7 6 nan 2 2 nan nan nan 0 nan nan nan nan nan 0 0 1 1 2 2 2 2 1 1 2 2 3 3 3 5 5 5 5 4 2 nan nan nan nan nan nan nan nan nan nan nan nan nan nan nan nan nan nan
nan nan nan nan nan nan nan nan nan nan nan nan nan nan nan nan nan nan nan nan nan nan nan nan nan nan nan nan nan nan nan nan 0 0 2 nan nan nan nan nan nan 1 1 2 2 2 1 1 1 1 1 1 2 2 2 2 2 3 3 4 4 5 6 5 5 4 3 0 nan nan nan nan nan nan nan nan nan nan nan nan nan nan nan nan nan nan
nan nan nan nan nan nan nan nan nan nan nan nan nan nan nan nan nan nan nan nan nan nan nan nan nan nan nan nan nan nan nan nan nan nan nan nan nan nan nan nan nan nan 1 3 3 3 4 2 2 1 1 1 2 2 3 2 2 4 5 6 6 6 6 5 5 4 2 nan nan nan nan nan nan nan nan nan nan nan nan nan nan nan nan nan nan nan
nan nan nan nan nan nan nan nan nan nan nan nan nan nan nan nan nan nan nan nan nan nan nan nan nan nan nan nan nan nan nan nan nan nan nan nan nan nan nan nan nan nan nan nan nan 0 5 4 4 4 4 3 3 3 4 5 5 7 8 7 7 6 6 4 4 3 0 nan nan nan nan nan nan nan nan nan nan nan nan nan nan nan nan nan nan nan
nan nan nan nan nan nan nan nan nan nan nan nan nan nan nan nan nan nan nan nan nan nan nan nan nan nan nan nan nan nan nan nan nan nan nan nan nan nan nan nan nan nan nan nan nan nan 2 0 0 0 4 5 5 5 6 8 8 8 9 9 9 8 7 5 5 1 nan nan nan nan nan nan nan nan nan nan nan nan nan nan nan nan nan nan nan nan
nan nan nan nan nan nan nan nan nan nan nan nan nan nan nan nan nan nan nan nan nan nan nan nan nan nan nan nan nan nan nan nan nan nan nan nan nan nan nan nan nan nan nan nan nan nan 0 nan nan nan 0 3 3 3 6 8 8 9 11 13 13 12 9 6 6 1 nan nan nan nan nan nan nan nan nan nan nan nan nan nan nan nan nan nan nan nan
nan nan nan nan nan nan nan nan nan nan nan nan nan nan nan nan nan nan nan nan nan nan nan nan nan nan nan nan nan nan nan nan nan nan nan nan nan nan nan nan nan nan nan nan nan nan nan nan nan nan nan 4 7 7 6 12 12 12 14 16 16 13 10 7 7 3 0 nan nan nan nan nan nan nan nan nan nan nan nan nan nan nan nan nan nan nan
nan nan nan nan nan nan nan nan nan nan nan nan nan nan nan nan nan nan nan nan nan nan nan nan nan nan nan nan nan nan nan nan nan nan nan nan nan nan nan nan nan nan nan nan nan nan nan nan nan nan 2 10 9 9 10 12 12 14 16 16 16 14 10 7 7 4 1 nan nan nan nan nan nan nan nan nan nan nan nan nan nan nan nan nan nan nan
nan nan nan nan nan nan nan nan nan nan nan nan nan nan nan nan nan nan nan nan nan nan nan nan nan nan nan nan nan nan nan nan nan nan nan nan nan nan nan nan nan nan nan nan nan nan nan nan nan nan 5 14 14 14 14 15 15 16 16 17 17 14 10 7 7 3 1 nan nan nan nan nan nan nan nan nan nan nan nan nan nan nan nan nan nan nan
nan nan nan nan nan nan nan nan nan nan nan nan nan nan nan nan nan nan nan nan nan nan nan nan nan nan nan nan nan nan nan nan nan nan nan nan nan nan nan nan nan nan nan nan nan nan nan nan nan 11 17 17 16 16 16 17 17 17 17 16 16 13 10 6 6 3 0 nan nan nan nan nan nan nan nan nan nan nan nan nan nan nan nan nan nan nan
nan nan nan nan nan nan nan nan nan nan nan nan nan nan nan nan nan nan nan nan nan nan nan nan nan nan nan nan nan nan nan nan nan nan nan nan nan nan nan nan nan nan nan nan nan nan nan nan nan 3 15 16 17 17 17 16 16 16 15 14 14 12 8 4 4 1 nan nan nan nan nan nan nan nan nan nan nan nan nan nan nan nan nan nan nan nan
nan nan nan nan nan nan nan nan 0 0 0 nan nan nan nan nan nan nan nan nan nan nan nan nan nan nan nan nan nan nan nan nan nan nan nan nan nan nan nan nan nan nan nan nan nan nan nan nan nan nan 13 16 17 17 17 16 16 16 15 14 14 10 6 3 3 0 nan nan nan nan nan nan nan nan nan nan nan nan nan nan nan nan nan nan nan nan
nan nan nan nan nan nan 1 0 1 1 0 nan nan nan nan nan nan nan nan nan nan nan nan nan nan nan nan nan nan nan nan nan nan nan nan nan nan nan nan nan nan nan nan nan nan nan nan nan nan 0 18 20 18 18 18 17 17 17 15 13 13 8 4 1 1 nan nan nan nan nan nan nan nan nan nan nan nan nan nan nan nan nan nan nan nan nan
nan nan nan nan nan 0 1 0 1 1 0 nan nan nan nan nan nan nan nan nan nan nan nan nan nan nan nan nan nan nan nan nan nan nan nan nan nan nan nan nan nan nan nan nan nan nan nan nan nan nan 20 21 19 19 18 17 17 17 15 11 11 6 3 nan nan nan nan nan nan nan nan nan nan nan nan nan nan nan nan nan nan nan nan nan nan 0
nan nan nan nan nan nan 0 0 nan nan nan nan nan nan nan nan nan nan nan nan nan nan nan nan nan nan nan nan nan nan nan nan nan nan nan nan nan nan nan nan nan nan nan nan nan nan nan nan nan nan 1 15 22 22 19 18 18 15 12 8 8 4 1 nan nan nan nan nan nan nan nan nan nan nan nan nan nan nan nan nan nan nan nan nan nan 0
nan nan nan nan nan 1 nan nan nan nan nan nan nan nan nan nan nan nan nan nan nan nan nan nan nan nan nan nan nan nan nan nan nan nan nan nan nan nan nan nan nan nan nan nan nan nan nan nan nan nan 1 nan 15 15 17 15 15 11 6 2 2 0 nan nan nan nan nan nan nan nan nan nan nan nan nan nan nan nan nan nan nan nan nan nan nan 0
3 2 1 2 2 4 3 3 3 3 nan nan nan nan nan nan nan nan nan nan nan nan nan nan nan nan nan nan nan nan nan nan nan nan nan nan nan nan nan nan nan nan nan nan nan nan nan nan nan nan nan nan 11 11 8 12 12 6 2 0 0 nan nan nan nan nan nan nan nan nan nan nan nan nan nan nan nan nan nan nan nan nan nan nan nan nan
10 8 8 6 6 6 6 6 6 6 6 3 nan nan nan nan nan nan nan nan nan nan nan nan nan nan nan nan nan nan nan nan nan nan nan nan nan nan nan nan nan nan nan nan nan nan 0 nan nan nan nan nan 3 3 5 6 6 4 2 nan nan nan nan nan nan nan nan nan nan nan nan nan nan nan nan nan 0 0 nan nan nan nan nan nan nan nan
4 5 7 6 6 5 6 8 8 8 8 9 5 5 nan nan nan nan nan nan nan nan nan nan nan nan nan nan nan nan nan nan nan nan nan nan nan nan nan nan nan nan nan nan nan 1 3 0 0 nan nan nan nan nan 2 1 1 0 1 nan nan nan nan nan nan nan nan nan nan nan nan nan nan nan nan 0 0 0 nan nan nan nan nan nan nan nan
1 2 4 6 6 5 7 8 8 8 9 5 0 0 nan nan nan nan nan nan nan nan nan nan nan nan nan nan nan nan nan nan nan nan nan nan nan nan nan nan nan nan nan nan nan nan 0 0 0 nan nan nan nan nan nan nan nan nan nan nan nan nan nan nan nan nan nan nan nan nan nan nan nan nan nan 0 1 1 0 nan nan nan nan nan nan nan
nan 0 1 1 1 2 1 1 3 3 3 1 0 0 nan nan nan nan nan nan nan nan nan nan nan nan nan nan nan nan nan nan nan nan nan nan nan nan nan nan nan nan nan nan nan nan nan nan nan nan nan 0 nan nan nan nan nan nan nan nan nan nan nan nan nan nan nan nan nan nan nan nan nan nan 0 1 1 1 1 nan nan nan nan nan nan nan
nan nan nan nan nan 0 0 nan 1 1 2 2 1 1 nan nan nan nan nan nan nan nan nan nan nan nan nan nan nan nan nan nan nan nan nan nan nan nan nan nan nan nan nan nan nan nan nan nan nan nan nan nan nan nan nan nan nan nan nan nan nan nan nan nan nan nan nan nan nan nan nan nan nan nan 0 1 1 1 1 0 0 nan nan nan nan nan
nan nan nan nan nan nan nan nan nan nan nan nan nan nan nan nan nan nan nan nan nan nan nan nan nan nan nan nan nan nan nan nan nan nan nan nan nan nan nan nan nan nan nan nan nan nan nan nan nan nan nan nan nan nan nan nan nan nan nan nan nan nan nan nan nan nan nan nan nan nan nan nan nan nan nan 0 1 1 2 1 1 nan nan nan nan nan
nan nan nan nan nan nan nan nan nan nan nan nan nan nan nan nan nan nan nan nan nan nan nan nan nan nan nan nan nan nan nan nan 0 0 nan nan nan nan nan nan nan nan nan nan nan nan nan nan nan nan nan nan nan nan nan nan nan nan nan nan nan nan nan nan nan nan nan nan nan nan nan nan nan nan nan 0 1 1 1 2 2 1 nan nan nan nan
nan nan nan nan nan nan nan nan nan nan nan nan nan nan nan nan nan nan nan nan nan nan nan nan nan nan nan nan nan nan nan nan 2 2 nan nan nan nan nan nan nan nan nan nan nan nan nan nan nan nan nan nan nan nan nan nan nan nan nan nan nan nan nan nan nan nan nan nan nan nan nan nan nan nan nan nan 1 1 1 2 2 1 2 nan nan nan
nan nan nan nan nan nan nan nan nan nan nan nan nan nan nan nan nan nan nan nan nan nan nan nan nan nan nan nan nan nan nan nan 1 1 nan nan nan nan nan nan nan nan nan nan nan nan nan nan nan nan nan nan nan nan nan nan nan nan nan nan nan nan nan nan nan nan nan nan nan nan nan nan nan nan nan nan 1 1 2 1 1 1 1 3 3 nan
nan nan nan nan nan nan nan nan nan nan nan nan nan nan nan nan nan nan nan nan nan nan nan nan nan nan nan nan nan nan nan nan 1 1 nan nan nan nan nan nan nan nan nan nan nan nan nan nan nan nan nan nan nan nan nan nan nan nan nan nan nan nan nan nan nan nan nan nan nan nan nan nan nan nan nan nan nan nan nan 0 0 0 nan 1 1 1
nan nan nan nan nan nan nan nan nan nan nan nan nan nan nan nan nan nan nan nan nan nan nan nan nan nan nan nan nan nan nan nan nan nan nan nan nan nan nan nan nan nan nan nan nan nan nan nan nan nan nan nan nan nan nan nan nan nan nan nan nan nan nan nan nan nan nan nan nan nan nan nan nan nan nan nan nan nan nan nan nan nan nan nan nan 1
nan nan nan nan nan nan nan nan nan nan nan nan nan nan nan nan nan nan nan nan nan nan nan nan nan nan nan 0 nan nan nan nan nan nan nan nan nan nan nan nan nan nan nan nan nan nan nan nan nan nan nan nan nan nan nan nan nan nan nan nan nan nan nan nan nan nan nan nan nan nan nan nan nan nan nan nan nan nan nan nan nan nan nan nan nan nan
nan nan nan nan nan nan nan nan nan nan nan nan nan nan nan nan nan nan nan nan nan nan nan nan nan nan nan nan nan nan nan nan nan nan nan nan nan nan nan nan nan nan nan nan nan nan nan nan nan nan nan nan nan nan nan nan nan nan nan nan nan nan nan nan nan nan nan nan nan nan nan nan nan nan nan nan nan nan nan nan nan nan nan nan nan nan
nan nan nan nan nan nan nan nan nan nan nan nan nan nan nan nan nan nan nan nan nan nan nan nan nan nan nan nan 0 0 nan nan nan nan nan nan nan nan nan nan nan nan nan nan nan nan nan nan nan nan nan nan nan nan nan nan nan nan nan nan nan nan nan nan nan nan nan nan nan nan nan nan nan nan nan nan nan nan nan nan nan nan nan nan nan nan
nan nan nan nan nan nan nan nan nan nan nan nan nan nan nan nan nan nan nan nan nan nan nan nan nan nan nan nan nan nan nan nan nan nan nan nan nan nan nan nan nan nan nan nan nan nan nan nan nan nan nan nan nan nan nan nan nan nan nan nan nan nan nan nan nan nan nan nan nan nan nan nan nan nan nan nan nan nan nan nan nan nan nan nan nan nan
nan nan nan nan nan nan nan nan nan nan nan nan nan nan nan nan nan nan nan nan nan nan nan nan nan nan nan nan nan nan nan nan nan nan nan nan nan nan nan nan nan nan nan nan nan nan nan nan nan nan nan nan nan nan nan nan nan nan nan nan nan nan nan nan nan nan nan nan nan nan nan nan nan nan nan nan nan nan nan nan nan nan nan nan nan nan
nan 0 nan nan nan nan nan nan nan nan nan nan nan nan nan nan nan nan nan nan nan nan nan nan nan nan nan nan nan nan nan nan nan nan nan nan nan nan nan nan nan nan nan nan nan nan nan nan nan nan nan nan nan nan nan nan nan nan nan nan nan nan nan nan nan nan nan nan nan nan nan nan nan nan nan nan nan nan nan nan nan 0 nan nan nan nan
0 nan nan nan nan nan nan nan nan nan nan nan nan nan nan nan nan nan nan nan nan nan nan nan nan nan nan nan nan nan nan nan nan nan nan nan nan nan nan nan nan nan nan nan nan nan nan nan nan nan nan nan nan nan nan nan nan nan nan nan nan nan nan nan nan nan nan nan nan nan nan nan nan nan nan nan nan nan nan nan nan nan nan nan nan nan
nan nan nan nan nan nan nan nan nan nan nan nan nan nan nan nan nan nan nan nan nan nan nan nan nan nan nan nan nan nan nan nan nan nan nan 1 1 1 nan nan nan nan nan nan nan nan nan nan nan nan nan nan nan nan nan nan nan nan nan nan nan nan nan nan nan nan nan nan nan nan nan nan nan nan nan nan nan nan nan nan nan nan nan nan nan nan
nan nan nan nan nan nan nan nan nan nan nan nan nan nan nan nan nan nan nan nan nan nan nan nan nan nan nan nan nan nan nan nan nan nan nan nan nan nan nan nan nan nan nan nan nan nan nan nan nan nan nan nan nan nan nan nan nan nan nan nan nan nan nan nan nan nan nan nan nan nan nan nan nan nan nan nan nan nan nan nan nan nan nan nan nan nan
nan nan nan nan nan nan nan nan nan nan nan nan nan nan nan nan nan nan nan nan nan nan nan nan nan nan nan nan nan nan nan nan nan nan nan nan nan nan nan nan nan nan nan nan nan nan nan nan nan nan nan nan nan nan nan nan nan nan nan nan nan nan nan nan nan nan nan nan nan nan nan nan nan nan nan nan nan nan nan nan nan nan nan nan nan nan
nan nan nan nan nan nan nan nan nan nan nan nan nan nan nan nan nan nan nan nan nan nan nan nan nan nan nan nan nan nan nan nan nan nan nan nan nan nan nan nan nan nan nan nan nan nan nan nan nan nan nan nan nan nan nan nan nan nan nan nan nan nan nan nan nan nan nan nan nan nan nan nan nan nan nan nan nan nan nan nan nan nan nan nan nan nan
nan nan nan nan nan nan nan nan nan nan nan nan nan nan nan nan nan nan nan nan nan nan nan nan nan nan nan nan nan nan nan nan nan nan nan nan nan nan nan nan nan nan nan nan nan nan nan nan nan nan nan nan nan nan nan nan nan nan nan nan nan nan nan nan nan nan nan nan nan nan nan nan nan nan nan nan nan nan nan nan nan nan nan nan nan nan
nan nan nan nan nan nan nan nan nan nan nan nan nan nan nan nan nan nan nan nan nan nan nan nan nan nan nan nan nan nan nan nan nan nan nan nan nan nan nan nan nan nan nan nan nan nan nan nan nan 1 2 nan nan nan nan nan nan nan nan nan nan nan nan nan nan nan nan nan nan nan nan nan nan nan nan nan nan nan nan nan nan nan nan nan nan nan
nan nan nan nan nan nan nan nan nan nan nan nan nan nan nan nan nan nan nan nan nan nan nan nan nan nan nan nan nan nan nan nan nan nan nan nan nan nan nan nan nan nan nan nan nan nan nan nan nan nan 3 6 nan nan nan nan nan nan nan nan nan nan nan nan nan nan nan nan nan nan nan nan nan nan nan nan nan nan nan nan nan nan nan nan nan nan
CIN
nan nan nan nan nan -2 -1 nan -1 -1 nan nan -1 -1 nan nan nan nan nan nan nan -0 -0 nan nan nan nan nan nan nan nan nan nan nan nan nan nan nan nan nan nan nan nan nan nan nan nan nan nan nan nan nan nan nan nan nan nan nan nan nan nan -0 -0 -0 -0 -0 -0 -0 -0 -0 -0 -0 nan nan nan nan nan nan nan nan nan nan nan nan nan nan
nan nan nan nan nan nan nan nan nan nan -1 nan nan nan nan nan nan nan -1 nan nan nan -1 nan nan nan nan nan nan nan nan nan nan nan nan nan nan nan nan nan nan nan nan nan nan nan nan nan nan nan nan nan nan nan nan nan nan nan nan nan nan nan -0 -0 -0 -0 -0 -0 -0 -0 -0 nan nan nan nan nan nan nan nan nan nan nan nan nan nan nan
nan nan nan nan nan nan nan nan nan nan nan -0 nan nan nan nan nan nan -1 -2 -2 nan nan nan nan -1 -0 nan nan nan nan nan nan nan nan nan nan nan nan nan nan nan nan nan nan nan nan nan nan nan nan nan nan nan nan nan nan nan nan nan nan nan -0 -0 -0 -0 -0 -0 -0 -0 -0 nan nan nan nan nan nan nan nan nan nan nan nan nan nan nan
nan nan nan nan nan nan nan nan nan nan -1 -1 nan nan nan nan nan nan nan nan nan nan nan -2 -2 -1 -0 -0 nan nan nan nan nan nan nan nan nan nan nan nan nan nan nan nan nan nan nan nan nan nan nan nan nan nan nan nan nan nan nan nan nan nan -1 -0 -0 -0 -0 -0 -0 -0 nan nan nan nan nan nan nan nan nan nan nan nan nan nan nan nan
nan nan nan nan nan nan nan nan nan nan nan nan nan nan nan nan nan nan nan nan nan nan nan nan nan nan -1 nan nan nan nan nan nan nan nan nan nan nan nan nan nan nan nan nan nan nan nan nan nan nan nan nan nan nan nan nan nan nan nan nan nan nan -0 -0 -0 -0 -0 -0 nan nan nan nan nan nan nan nan nan nan nan nan nan nan nan nan nan nan
nan nan nan nan nan nan nan nan nan nan nan nan nan nan nan nan nan nan nan nan nan nan nan nan nan nan -1 nan nan nan nan nan nan nan nan nan nan nan nan nan nan nan nan nan nan nan nan nan nan nan nan nan nan nan nan nan nan nan nan nan nan -1 -0 -0 -0 -0 -0 nan nan nan nan nan nan nan nan nan nan nan nan nan nan nan nan nan nan nan
nan nan nan nan nan nan nan nan nan nan nan nan nan nan nan nan nan nan nan nan nan nan nan nan nan nan -2 -1 nan nan nan nan nan nan nan nan nan nan nan nan nan nan nan nan nan nan nan nan nan nan nan nan nan nan nan nan nan nan nan nan nan -0 -0 -0 -0 -0 -0 nan nan nan nan nan nan nan nan nan nan nan nan nan nan nan nan nan nan nan
nan nan nan nan nan nan nan nan nan nan nan nan nan nan nan nan nan nan nan nan nan nan nan nan nan nan nan nan -2 -2 nan nan nan nan nan nan nan nan nan nan nan nan nan nan nan nan nan nan nan nan nan nan nan nan nan nan nan nan nan -0 -0 -0 -0 -0 -0 -0 -0 -0 -0 -0 nan nan nan nan nan nan nan nan nan nan nan nan nan nan nan nan
nan nan nan nan nan nan nan nan nan nan nan nan nan nan nan nan nan nan nan nan nan nan nan nan nan nan nan nan nan nan -1 -1 -1 -1 nan nan nan nan -0 nan nan nan nan nan nan nan nan nan nan nan -0 -0 -0 -0 -0 -0 -0 -0 -0 -0 -0 -0 -0 -0 -0 -0 -0 -0 -0 -0 nan nan nan nan nan nan nan nan nan nan nan nan nan nan nan nan
nan nan nan nan nan nan nan nan nan nan nan nan nan nan nan nan nan nan nan nan nan nan nan nan nan nan nan nan nan nan -2 -0 -0 -0 -0 nan -0 -0 nan nan nan -1 nan nan nan nan nan -0 -0 -0 -0 -0 -0 -0 -0 -0 -0 -0 -0 -0 -0 -0 -0 -0 -0 -0 -0 -0 nan nan nan nan nan nan nan nan nan nan nan nan nan nan nan nan nan nan
nan nan nan nan nan nan nan nan nan nan nan nan nan nan nan nan nan nan nan nan nan nan nan nan nan nan nan nan nan nan nan nan -2 -2 -0 nan nan nan nan nan nan -0 -0 -0 -0 -0 -0 -0 -0 -0 -0 -0 -0 -0 -0 -0 -0 -0 -0 -0 -0 -0 -0 -0 -0 -0 -0 -0 nan nan nan nan nan nan nan nan nan nan nan nan nan nan nan nan nan nan
nan nan nan nan nan nan nan nan nan nan nan nan nan nan nan nan nan nan nan nan nan nan nan nan nan nan nan nan nan nan nan nan nan nan nan nan nan nan nan nan nan nan -0 -0 -0 -0 -0 -0 -0 -0 -0 -0 -0 -0 -0 -0 -0 -0 -0 -0 -0 -0 -0 -0 -0 -0 -0 nan nan nan nan nan nan nan nan nan nan nan nan nan nan nan nan nan nan nan
nan nan nan nan nan nan nan nan nan nan nan nan nan nan nan nan nan nan nan nan nan nan nan nan nan nan nan nan nan nan nan nan nan nan nan nan nan nan nan nan nan nan nan nan nan -1 -0 -0 -0 -0 -0 -0 -0 -0 -0 -0 -0 -0 -0 -0 -0 -0 -0 -0 -0 -0 -0 nan nan nan nan nan nan nan nan nan nan nan nan nan nan nan nan nan nan nan
nan nan nan nan nan nan nan nan nan nan nan nan nan nan nan nan nan nan nan nan nan nan nan nan nan nan nan nan nan nan nan nan nan nan nan nan nan nan nan nan nan nan nan nan nan nan -0 -0 -0 -0 -0 -0 -0 -0 -0 -0 -0 -0 -0 -0 -0 -0 -0 -0 -0 -0 nan nan nan nan nan nan nan nan nan nan nan nan nan nan nan nan nan nan nan nan
nan nan nan nan nan nan nan nan nan nan nan nan nan nan nan nan nan nan nan nan nan nan nan nan nan nan nan nan nan nan nan nan nan nan nan nan nan nan nan nan nan nan nan nan nan nan -0 nan nan nan -0 -0 -0 -0 -0 -0 -0 -0 -0 -0 -0 -0 -0 -0 -0 -0 nan nan nan nan nan nan nan nan nan nan nan nan nan nan nan nan nan nan nan nan
nan nan nan nan nan nan nan nan nan nan nan nan nan nan nan nan nan nan nan nan nan nan nan nan nan nan nan nan nan nan nan nan nan nan nan nan nan nan nan nan nan nan nan nan nan nan nan nan nan nan nan -0 -0 -0 -0 -0 -0 -0 -0 -0 -0 -0 -0 -0 -0 -0 -0 nan nan nan nan nan nan nan nan nan nan nan nan nan nan nan nan nan nan nan
nan nan nan nan nan nan nan nan nan nan nan nan nan nan nan nan nan nan nan nan nan nan nan nan nan nan nan nan nan nan nan nan nan nan nan nan nan nan nan nan nan nan nan nan nan nan nan nan nan nan -0 -0 -0 -0 -0 -0 -0 -0 -0 -0 -0 -0 -0 -0 -0 -0 -0 nan nan nan nan nan nan nan nan nan nan nan nan nan nan nan nan nan nan nan
nan nan nan nan nan nan nan nan nan nan nan nan nan nan nan nan nan nan nan nan nan nan nan nan nan nan nan nan nan nan nan nan nan nan nan nan nan nan nan nan nan nan nan nan nan nan nan nan nan nan -0 -0 -0 -0 -0 -0 -0 -0 -0 -0 -0 -0 -0 -0 -0 -0 -0 nan nan nan nan nan nan nan nan nan nan nan nan nan nan nan nan nan nan nan
nan nan nan nan nan nan nan nan nan nan nan nan nan nan nan nan nan nan nan nan nan nan nan nan nan nan nan nan nan nan nan nan nan nan nan nan nan nan nan nan nan nan nan nan nan nan nan nan nan -0 -0 -0 -0 -0 -0 -0 -0 -0 -0 -0 -0 -0 -0 -0 -0 -0 -0 nan nan nan nan nan nan nan nan nan nan nan nan nan nan nan nan nan nan nan
nan nan nan nan nan nan nan nan nan nan nan nan nan nan nan nan nan nan nan nan nan nan nan nan nan nan nan nan nan nan nan nan nan nan nan nan nan nan nan nan nan nan nan nan nan nan nan nan nan -0 -0 -0 -0 -0 -0 -0 -0 -0 -0 -0 -0 -0 -0 -0 -0 -0 nan nan nan nan nan nan nan nan nan nan nan nan nan nan nan nan nan nan nan nan
nan nan nan nan nan nan nan nan -0 -0 -0 nan nan nan nan nan nan nan nan nan nan nan nan nan nan nan nan nan nan nan nan nan nan nan nan nan nan nan nan nan nan nan nan nan nan nan nan nan nan nan -0 -0 -0 -0 -0 -0 -0 -0 -0 -0 -0 -0 -0 -0 -0 -0 nan nan nan nan nan nan nan nan nan nan nan nan nan nan nan nan nan nan nan nan
nan nan nan nan nan nan -0 -0 -0 -0 -0 nan nan nan nan nan nan nan nan nan nan nan nan nan nan nan nan nan nan nan nan nan nan nan nan nan nan nan nan nan nan nan nan nan nan nan nan nan nan -4 -0 -0 -0 -0 -0 -0 -0 -0 -0 -0 -0 -0 -0 -0 -0 nan nan nan nan nan nan nan nan nan nan nan nan nan nan nan nan nan nan nan nan nan
nan nan nan nan nan -0 -0 -0 -0 -0 -0 nan nan nan nan nan nan nan nan nan nan nan nan nan nan nan nan nan nan nan nan nan nan nan nan nan nan nan nan nan nan nan nan nan nan nan nan nan nan nan -0 -0 -0 -0 -0 -0 -0 -0 -0 -0 -0 -0 -0 nan nan nan nan nan nan nan nan nan nan nan nan nan nan nan nan nan nan nan nan nan nan -0
nan nan nan nan nan nan -0 -0 nan nan nan nan nan nan nan nan nan nan nan nan nan nan nan nan nan nan nan nan nan nan nan nan nan nan nan nan nan nan nan nan nan nan nan nan nan nan nan nan nan nan -0 -0 -0 -0 -0 -0 -0 -0 -0 -0 -0 -0 -0 nan nan nan nan nan nan nan nan nan nan nan nan nan nan nan nan nan nan nan nan nan nan -0
nan nan nan nan nan -0 nan nan nan nan nan nan nan nan nan nan nan nan nan nan nan nan nan nan nan nan nan nan nan nan nan nan nan nan nan nan nan nan nan nan nan nan nan nan nan nan nan nan nan nan -0 nan -0 -0 -0 -0 -0 -0 -0 -0 -0 -0 nan nan nan nan nan nan nan nan nan nan nan nan nan nan nan nan nan nan nan nan nan nan nan -0
-1 -1 -1 -0 -0 -0 -0 -0 -0 -0 nan nan nan nan nan nan nan nan nan nan nan nan nan nan nan nan nan nan nan nan nan nan nan nan nan nan nan nan nan nan nan nan nan nan nan nan nan nan nan nan nan nan -0 -0 -1 -0 -0 -0 -0 -0 -0 nan nan nan nan nan nan nan nan nan nan nan nan nan nan nan nan nan nan nan nan nan nan nan nan nan
-0 -0 -0 -0 -0 -0 -0 -0 -0 -0 -0 -0 nan nan nan nan nan nan nan nan nan nan nan nan nan nan nan nan nan nan nan nan nan nan nan nan nan nan nan nan nan nan nan nan nan nan -0 nan nan nan nan nan -0 -0 -0 -0 -0 -1 -0 nan nan nan nan nan nan nan nan nan nan nan nan nan nan nan nan nan -0 -0 nan nan nan nan nan nan nan nan
-0 -0 -0 -0 -0 -0 -0 -0 -0 -0 -0 -0 -0 -0 nan nan nan nan nan nan nan nan nan nan nan nan nan nan nan nan nan nan nan nan nan nan nan nan nan nan nan nan nan nan nan -0 -0 -0 -0 nan nan nan nan nan -0 -0 -0 -0 -0 nan nan nan nan nan nan nan nan nan nan nan nan nan nan nan nan -0 -0 -0 nan nan nan nan nan nan nan nan
-0 -0 -0 -0 -0 -0 -0 -0 -0 -0 -0 -0 -0 -0 nan nan nan nan nan nan nan nan nan nan nan nan nan nan nan nan nan nan nan nan nan nan nan nan nan nan nan nan nan nan nan nan -0 -0 -0 nan nan nan nan nan nan nan nan nan nan nan nan nan nan nan nan nan nan nan nan nan nan nan nan nan nan -0 -0 -0 -0 nan nan nan nan nan nan nan
nan -0 -0 -0 -0 -0 -0 -0 -0 -0 -0 -0 -0 -0 nan nan nan nan nan nan nan nan nan nan nan nan nan nan nan nan nan nan nan nan nan nan nan nan nan nan nan nan nan nan nan nan nan nan nan nan nan -0 nan nan nan nan nan nan nan nan nan nan nan nan nan nan nan nan nan nan nan nan nan nan -0 -0 -0 -0 -0 nan nan nan nan nan nan nan
nan nan nan nan nan -0 -0 nan -0 -0 -0 -0 -0 -0 nan nan nan nan nan nan nan nan nan nan nan nan nan nan nan nan nan nan nan nan nan nan nan nan nan nan nan nan nan nan nan nan nan nan nan nan nan nan nan nan nan nan nan nan nan nan nan nan nan nan nan nan nan nan nan nan nan nan nan nan -0 -0 -0 -0 -0 -0 -0 nan nan nan nan nan
nan nan nan nan nan nan nan nan nan nan nan nan nan nan nan nan nan nan nan nan nan nan nan nan nan nan nan nan nan nan nan nan nan nan nan nan nan nan nan nan nan nan nan nan nan nan nan nan nan nan nan nan nan nan nan nan nan nan nan nan nan nan nan nan nan nan nan nan nan nan nan nan nan nan nan -0 -0 -0 -0 -0 -0 nan nan nan nan nan
nan nan nan nan nan nan nan nan nan nan nan nan nan nan nan nan nan nan nan nan nan nan nan nan nan nan nan nan nan nan nan nan -1 -1 nan nan nan nan nan nan nan nan nan nan nan nan nan nan nan nan nan nan nan nan nan nan nan nan nan nan nan nan nan nan nan nan nan nan nan nan nan nan nan nan nan -0 -0 -0 -0 -0 -0 -0 nan nan nan nan
nan nan nan nan nan nan nan nan nan nan nan nan nan nan nan nan nan nan nan nan nan nan nan nan nan nan nan nan nan nan nan nan -0 -0 nan nan nan nan nan nan nan nan nan nan nan nan nan nan nan nan nan nan nan nan nan nan nan nan nan nan nan nan nan nan nan nan nan nan nan nan nan nan nan nan nan nan -0 -0 -0 -0 -0 -0 -0 nan nan nan
nan nan nan nan nan nan nan nan nan nan nan nan nan nan nan nan nan nan nan nan nan nan nan nan nan nan nan nan nan nan nan nan -1 -1 nan nan nan nan nan nan nan nan nan nan nan nan nan nan nan nan nan nan nan nan nan nan nan nan nan nan nan nan nan nan nan nan nan nan nan nan nan nan nan nan nan nan -0 -0 -0 -0 -0 -0 -0 -0 -0 nan
nan nan nan nan nan nan nan nan nan nan nan nan nan nan nan nan nan nan nan nan nan nan nan nan nan nan nan nan nan nan nan nan -1 -1 nan nan nan nan nan nan nan nan nan nan nan nan nan nan nan nan nan nan nan nan nan nan nan nan nan nan nan nan nan nan nan nan nan nan nan nan nan nan nan nan nan nan nan nan nan -1 -1 -0 nan -1 -1 -2
nan nan nan nan nan nan nan nan nan nan nan nan nan nan nan nan nan nan nan nan nan nan nan nan nan nan nan nan nan nan nan nan nan nan nan nan nan nan nan nan nan nan nan nan nan nan nan nan nan nan nan nan nan nan nan nan nan nan nan nan nan nan nan nan nan nan nan nan nan nan nan nan nan nan nan nan nan nan nan nan nan nan nan nan nan -2
nan nan nan nan nan nan nan nan nan nan nan nan nan nan nan nan nan nan nan nan nan nan nan nan nan nan nan -0 nan nan nan nan nan nan nan nan nan nan nan nan nan nan nan nan nan nan nan nan nan nan nan nan nan nan nan nan nan nan nan nan nan nan nan nan nan nan nan nan nan nan nan nan nan nan nan nan nan nan nan nan nan nan nan nan nan nan
nan nan nan nan nan nan nan nan nan nan nan nan nan nan nan nan nan nan nan nan nan nan nan nan nan nan nan nan nan nan nan nan nan nan nan nan nan nan nan nan nan nan nan nan nan nan nan nan nan nan nan nan nan nan nan nan nan nan nan nan nan nan nan nan nan nan nan nan nan nan nan nan nan nan nan nan nan nan nan nan nan nan nan nan nan nan
nan nan nan nan nan nan nan nan nan nan nan nan nan nan nan nan nan nan nan nan nan nan nan nan nan nan nan nan -0 -0 nan nan nan nan nan nan nan nan nan nan nan nan nan nan nan nan nan nan nan nan nan nan nan nan nan nan nan nan nan nan nan nan nan nan nan nan nan nan nan nan nan nan nan nan nan nan nan nan nan nan nan nan nan nan nan nan
nan nan nan nan nan nan nan nan nan nan nan nan nan nan nan nan nan nan nan nan nan nan nan nan nan nan nan nan nan nan nan nan nan nan nan nan nan nan nan nan nan nan nan nan nan nan nan nan nan nan nan nan nan nan nan nan nan nan nan nan nan nan nan nan nan nan nan nan nan nan nan nan nan nan nan nan nan nan nan nan nan nan nan nan nan nan
nan nan nan nan nan nan nan nan nan nan nan nan nan nan nan nan nan nan nan nan nan nan nan nan nan nan nan nan nan nan nan nan nan nan nan nan nan nan nan nan nan nan nan nan nan nan nan nan nan nan nan nan nan nan nan nan nan nan nan nan nan nan nan nan nan nan nan nan nan nan nan nan nan nan nan nan nan nan nan nan nan nan nan nan nan nan
nan -0 nan nan nan nan nan nan nan nan nan nan nan nan nan nan nan nan nan nan nan nan nan nan nan nan nan nan nan nan nan nan nan nan nan nan nan nan nan nan nan nan nan nan nan nan nan nan nan nan nan nan nan nan nan nan nan nan nan nan nan nan nan nan nan nan nan nan nan nan nan nan nan nan nan nan nan nan nan nan nan -0 nan nan nan nan
-0 nan nan nan nan nan nan nan nan nan nan nan nan nan nan nan nan nan nan nan nan nan nan nan nan nan nan nan nan nan nan nan nan nan nan nan nan nan nan nan nan nan nan nan nan nan nan nan nan nan nan nan nan nan nan nan nan nan nan nan nan nan nan nan nan nan nan nan nan nan nan nan nan nan nan nan nan nan nan nan nan nan nan nan nan nan
nan nan nan nan nan nan nan nan nan nan nan nan nan nan nan nan nan nan nan nan nan nan nan nan nan nan nan nan nan nan nan nan nan nan nan -0 -0 -0 nan nan nan nan nan nan nan nan nan nan nan nan nan nan nan nan nan nan nan nan nan nan nan nan nan nan nan nan nan nan nan nan nan nan nan nan nan nan nan nan nan nan nan nan nan nan nan nan
nan nan nan nan nan nan nan nan nan nan nan nan nan nan nan nan nan nan nan nan nan nan nan nan nan nan nan nan nan nan nan nan nan nan nan nan nan nan nan nan nan nan nan nan nan nan nan nan nan nan nan nan nan nan nan nan nan nan nan nan nan nan nan nan nan nan nan nan nan nan nan nan nan nan nan nan nan nan nan nan nan nan nan nan nan nan
nan nan nan nan nan nan nan nan nan nan nan nan nan nan nan nan nan nan nan nan nan nan nan nan nan nan nan nan nan nan nan nan nan nan nan nan nan nan nan nan nan nan nan nan nan nan nan nan nan nan nan nan nan nan nan nan nan nan nan nan nan nan nan nan nan nan nan nan nan nan nan nan nan nan nan nan nan nan nan nan nan nan nan nan nan nan
nan nan nan nan nan nan nan nan nan nan nan nan nan nan nan nan nan nan nan nan nan nan nan nan nan nan nan nan nan nan nan nan nan nan nan nan nan nan nan nan nan nan nan nan nan nan nan nan nan nan nan nan nan nan nan nan nan nan nan nan nan nan nan nan nan nan nan nan nan nan nan nan nan nan nan nan nan nan nan nan nan nan nan nan nan nan
nan nan nan nan nan nan nan nan nan nan nan nan nan nan nan nan nan nan nan nan nan nan nan nan nan nan nan nan nan nan nan nan nan nan nan nan nan nan nan nan nan nan nan nan nan nan nan nan nan nan nan nan nan nan nan nan nan nan nan nan nan nan nan nan nan nan nan nan nan nan nan nan nan nan nan nan nan nan nan nan nan nan nan nan nan nan
nan nan nan nan nan nan nan nan nan nan nan nan nan nan nan nan nan nan nan nan nan nan nan nan nan nan nan nan nan nan nan nan nan nan nan nan nan nan nan nan nan nan nan nan nan nan nan nan nan -0 -0 nan nan nan nan nan nan nan nan nan nan nan nan nan nan nan nan nan nan nan nan nan nan nan nan nan nan nan nan nan nan nan nan nan nan nan
nan nan nan nan nan nan nan nan nan nan nan nan nan nan nan nan nan nan nan nan nan nan nan nan nan nan nan nan nan nan nan nan nan nan nan nan nan nan nan nan nan nan nan nan nan nan nan nan nan nan -0 -0 nan nan nan nan nan nan nan nan nan nan nan nan nan nan nan nan nan nan nan nan nan nan nan nan nan nan nan nan nan nan nan nan nan nan
Wind_Speed
5 6 7 9 9 8 9 11 11 9 8 8 8 8 8 9 10 11 13 12 11 10 9 8 7 6 4 4 5 6 8 8 10 11 11 10 11 12 13 14 15 16 17 16 16 17 19 21 23 24 25 26 26 27 27 27 26 26 25 25 24 24 24 24 23 23 22 22 21 20 19 17 16 15 14 13 11 10 9 8 7 6 5 5 4 3
6 6 6 10 10 8 7 11 11 10 9 9 8 8 9 9 9 9 10 11 11 11 10 9 9 9 8 5 3 5 7 8 9 10 11 11 12 12 13 14 15 17 18 18 18 18 20 22 24 24 24 24 24 25 26 26 26 26 26 25 24 24 23 23 22 22 21 21 20 19 19 17 16 15 14 12 11 10 9 8 7 6 5 4 4 3
6 6 6 8 8 8 7 9 10 9 9 9 8 9 10 10 9 8 8 9 10 10 10 10 11 11 11 9 5 3 5 8 9 10 11 12 12 13 13 14 15 17 19 19 20 21 22 25 25 25 24 23 23 24 25 26 26 26 26 25 24 24 23 22 21 21 20 19 19 18 18 17 16 15 14 12 11 9 8 7 6 6 5 4 4 3
5 5 6 6 6 7 7 7 7 8 8 8 9 10 12 10 9 8 8 9 9 10 11 12 12 11 11 11 10 7 3 5 8 10 12 12 13 13 13 14 16 18 20 21 23 24 25 27 27 26 25 24 24 24 25 26 27 27 27 26 25 24 22 21 20 19 19 18 18 17 17 17 16 15 13 12 10 9 8 7 6 5 5 4 4 3
5 5 5 5 5 6 6 6 6 6 6 8 9 10 10 9 7 7 7 9 10 10 11 12 12 12 10 11 12 13 10 5 5 8 11 12 13 14 15 16 18 19 21 23 25 26 27 28 28 28 26 26 25 25 26 27 27 27 27 27 25 24 23 21 20 19 18 17 17 16 16 16 15 14 13 11 9 8 7 6 6 5 5 4 4 3
5 5 4 4 4 4 5 5 5 5 5 7 8 8 8 8 7 7 8 8 9 9 10 10 11 12 12 12 15 18 18 14 10 6 6 9 12 15 17 18 20 22 23 24 26 27 27 28 29 28 28 27 27 26 26 27 28 28 28 27 26 24 23 22 20 19 18 17 16 16 16 15 15 14 12 10 9 8 6 6 5 5 5 5 4 4
5 4 4 4 4 4 4 5 6 6 5 5 6 6 7 7 8 8 9 8 8 8 9 9 10 12 13 14 16 19 20 19 18 14 10 8 9 12 16 18 21 23 24 25 26 27 28 29 29 29 28 27 27 27 27 27 28 28 28 27 26 25 23 22 21 19 18 17 16 15 15 15 14 13 12 10 9 7 6 6 5 5 5 5 4 4
5 5 5 5 4 4 4 5 6 6 5 4 5 5 6 6 7 8 9 9 9 8 8 9 10 11 12 14 15 16 17 17 17 17 15 13 12 13 14 17 19 22 24 26 27 29 29 29 29 28 28 27 27 26 27 27 28 28 28 27 26 25 23 22 21 20 18 17 16 15 15 14 13 12 11 10 8 7 6 6 6 6 6 5 4 4
5 5 5 5 5 5 4 5 5 6 6 5 5 5 5 6 6 6 8 9 9 8 8 9 10 11 11 12 13 14 15 16 17 17 17 16 16 17 18 19 20 22 25 26 28 29 30 30 29 29 28 27 26 26 26 27 27 28 28 27 26 24 23 22 21 19 18 17 16 15 14 14 13 12 11 9 8 7 6 6 6 6 6 5 5 4
5 5 5 5 5 4 4 4 5 5 5 5 5 5 5 6 6 6 8 8 8 8 8 9 9 10 10 11 11 12 13 16 19 22 23 22 22 22 22 22 22 23 27 28 28 29 30 30 30 29 28 27 27 26 26 26 26 27 27 26 25 24 23 21 20 19 17 16 15 15 14 13 12 11 10 9 8 7 7 6 6 6 5 5 5 5
5 5 4 4 4 4 4 4 3 4 4 4 5 5 6 6 6 6 8 8 7 7 8 8 9 9 9 9 10 10 11 12 15 18 21 23 24 24 24 23 24 25 28 28 28 29 29 29 29 29 28 27 26 25 25 24 25 25 25 25 24 23 22 21 19 18 17 16 15 14 14 13 12 11 10 9 8 7 7 6 6 5 5 5 5 5
4 4 3 3 4 4 4 4 3 3 4 4 5 6 7 7 6 6 7 7 7 7 7 7 8 9 9 8 8 8 9 9 10 11 12 14 16 16 17 17 19 21 22 24 25 27 28 28 27 27 26 26 25 24 23 23 23 23 24 24 23 22 21 20 19 17 16 15 15 14 13 12 12 10 9 8 7 7 6 6 6 5 5 5 5 5
4 3 3 4 4 4 4 5 5 5 5 5 6 6 6 5 5 5 6 7 6 6 6 6 7 8 9 9 8 7 7 8 8 9 10 10 10 10 9 10 11 11 13 14 16 18 22 23 24 24 24 24 23 23 23 22 22 22 22 22 22 21 20 19 18 17 16 15 14 14 13 12 11 10 9 8 7 7 6 6 6 5 5 5 5 5
4 4 4 5 5 5 5 5 5 6 6 6 5 5 4 3 4 4 5 6 5 5 5 7 7 8 8 9 8 8 6 6 7 8 10 10 9 8 7 8 8 9 9 10 10 12 14 15 15 17 20 21 22 22 21 21 21 21 20 20 20 20 19 18 17 16 15 14 14 13 12 11 11 10 9 8 7 6 6 6 6 5 5 5 5 5
5 5 5 5 5 5 5 5 5 5 5 5 4 4 3 4 4 4 5 4 4 3 4 7 8 7 7 8 8 8 6 5 6 7 9 9 8 8 7 7 8 8 9 9 9 10 11 10 9 10 13 16 17 18 19 19 19 20 19 19 19 19 18 17 16 15 14 14 13 12 12 11 10 9 8 7 7 6 6 6 6 6 6 6 6 5
5 5 5 5 5 5 4 4 4 4 4 4 4 4 4 4 4 4 4 3 3 2 3 5 6 6 6 6 7 7 6 5 5 7 9 8 7 7 7 7 8 9 9 9 8 8 8 8 8 9 11 15 18 19 19 19 19 19 18 18 18 18 17 17 16 15 14 13 12 12 11 10 9 9 8 7 6 6 6 6 6 6 6 6 6 5
5 5 5 5 5 4 4 4 4 4 3 3 4 4 4 4 4 3 3 3 2 2 3 4 4 4 3 4 6 7 7 5 4 5 8 8 7 7 6 6 7 8 8 8 8 7 7 7 7 7 10 15 18 19 18 18 18 18 18 17 17 17 17 16 15 14 13 12 12 11 10 10 9 8 7 7 6 6 6 6 6 6 6 6 5 5
5 5 4 4 4 4 4 4 4 4 3 3 4 4 4 4 4 4 4 4 4 4 4 4 4 3 3 2 4 5 6 4 4 5 7 8 6 6 6 6 7 8 9 8 8 7 6 6 6 8 10 15 17 17 17 17 17 17 17 16 16 16 16 15 14 14 13 12 11 10 10 9 8 8 7 7 7 7 7 7 6 6 6 5 5 5
5 5 4 4 3 3 3 4 4 4 3 3 3 3 4 4 5 5 5 5 5 5 5 5 5 4 3 3 3 4 5 4 3 5 7 7 6 5 6 5 7 8 9 8 7 7 6 6 9 12 15 16 16 16 16 16 16 16 16 15 15 15 15 14 14 13 12 11 10 10 9 9 8 8 7 7 7 7 7 6 6 6 6 5 5 5
5 5 5 3 3 3 3 4 4 4 3 3 3 3 3 4 5 5 5 5 5 5 6 6 5 4 3 3 3 4 5 3 4 5 7 6 5 5 5 5 6 7 8 7 6 6 6 6 8 11 14 15 15 15 15 15 15 15 15 15 15 14 14 14 13 12 11 11 10 10 9 9 8 8 7 7 7 7 6 6 6 5 5 5 5 5
5 5 5 4 3 3 3 4 4 5 5 4 3 3 3 4 4 5 4 5 5 5 6 6 5 4 3 3 2 3 4 3 3 4 5 5 5 4 4 4 5 7 8 7 6 6 6 6 6 7 11 13 14 14 14 14 14 14 14 14 14 14 14 13 12 12 11 10 10 9 9 9 8 8 8 7 7 6 5 5 5 5 5 5 5 5
4 4 4 4 4 3 3 4 5 6 6 5 3 3 2 3 3 4 4 4 5 6 6 5 4 3 3 3 2 3 4 4 3 3 4 4 5 4 4 4 4 6 7 6 6 5 6 5 5 7 11 13 13 13 13 13 13 13 14 14 14 14 13 13 12 11 10 10 10 9 9 9 8 8 7 7 6 5 5 5 5 5 5 5 5 5
4 3 4 4 4 4 4 4 5 5 6 5 5 4 2 3 3 3 3 4 5 5 6 5 4 3 3 3 3 4 5 4 3 2 3 4 4 3 3 3 4 6 6 5 5 5 6 6 6 7 9 12 12 12 12 12 12 13 13 13 13 13 13 12 11 11 10 10 9 9 9 8 8 7 6 6 5 4 4 5 5 5 5 5 5 5
4 4 3 4 4 4 4 4 4 4 5 5 5 5 4 4 4 4 4 4 4 5 4 4 4 4 5 5 4 4 5 4 3 2 3 4 3 3 2 3 4 6 6 5 5 5 6 6 6 6 6 9 11 11 11 12 12 12 13 13 13 12 12 11 10 10 10 9 9 8 8 7 7 6 5 5 4 4 4 5 5 5 6 6 5 5
4 4 4 5 5 6 6 6 6 5 5 5 5 5 5 6 6 5 4 4 4 4 4 5 5 5 4 4 4 4 4 4 4 3 3 3 3 3 2 3 4 5 5 4 4 5 5 5 5 5 5 6 8 10 11 11 11 11 11 12 11 11 10 10 10 9 9 8 8 8 7 7 6 5 4 4 3 3 4 5 5 6 6 6 5 5
8 8 8 9 11 12 12 12 11 11 9 7 5 4 4 4 4 4 4 3 3 4 5 5 5 4 2 3 3 3 3 4 4 3 3 3 3 2 2 2 3 4 4 3 4 5 5 5 5 5 5 6 7 9 10 11 10 10 10 10 10 10 9 9 9 8 8 8 7 7 6 6 5 4 3 3 3 3 4 5 5 6 5 5 5 5
14 14 14 15 15 15 15 15 14 14 13 10 7 4 3 2 3 3 3 2 2 3 4 5 4 3 2 2 2 2 3 3 3 3 2 3 4 3 2 2 2 3 4 3 4 5 5 5 5 5 5 5 6 8 11 11 10 10 9 9 9 9 9 9 8 8 7 7 6 6 5 5 4 3 3 3 3 3 4 5 5 5 5 4 4 4
15 15 15 14 14 14 14 13 13 12 12 10 8 6 3 2 2 3 2 1 1 2 3 4 3 3 2 2 1 2 2 2 2 2 2 3 3 3 2 2 2 3 3 3 3 4 6 5 4 4 4 5 5 6 9 10 10 9 9 9 9 9 9 9 8 7 7 6 5 5 4 4 3 3 2 3 3 4 4 4 4 4 4 3 2 2
12 13 13 13 13 12 12 11 11 12 12 11 9 7 4 3 3 2 1 1 1 2 3 3 3 3 2 2 1 1 2 2 2 2 1 3 3 3 2 2 2 2 2 2 2 3 4 3 3 3 4 5 5 5 6 7 8 8 8 9 9 9 9 9 8 7 6 5 5 4 3 3 2 2 2 3 3 4 4 4 3 3 2 2 2 2
8 9 10 10 10 10 9 9 9 10 12 12 11 8 6 4 3 2 1 2 2 3 3 3 3 3 3 2 2 1 1 2 2 1 1 2 3 2 2 2 2 1 1 1 1 2 2 2 2 3 3 4 4 4 4 4 5 5 5 6 7 8 9 9 8 7 6 5 4 4 3 2 2 2 3 3 4 4 4 3 3 2 1 1 2 2
5 6 6 6 6 6 6 6 6 7 9 10 9 8 6 4 3 3 2 2 2 3 3 3 3 3 2 2 1 1 0 2 2 1 1 2 2 3 3 3 2 1 0 1 1 1 1 1 2 2 3 3 3 3 3 3 3 3 3 4 4 6 8 8 7 7 6 5 4 4 3 2 2 2 3 3 4 4 4 3 2 1 1 1 2 2
4 4 4 4 4 4 4 4 4 5 5 6 6 6 6 5 4 3 3 3 2 3 3 3 3 2 1 1 1 1 1 1 2 2 2 2 2 2 3 3 2 1 1 1 1 2 2 1 0 1 2 2 2 2 3 3 3 3 3 3 3 4 6 7 6 6 5 5 4 4 3 3 3 3 3 4 4 4 4 3 2 1 0 1 2 2
3 3 3 3 3 4 4 4 4 4 4 4 4 4 5 5 5 4 4 3 3 3 3 3 3 2 2 2 2 1 0 1 2 3 3 2 2 2 2 2 2 2 2 2 2 2 2 1 1 0 1 1 1 2 2 2 3 2 2 3 3 3 5 5 5 5 4 4 4 4 4 4 4 4 4 4 4 4 4 4 4 3 2 1 1 2
3 3 3 3 3 3 4 4 4 4 4 4 4 4 4 4 4 4 4 4 3 3 3 3 3 2 2 2 2 1 0 1 3 4 3 2 2 2 2 2 2 2 2 1 2 2 2 2 2 1 0 1 1 2 2 2 2 2 2 2 2 2 3 3 3 3 3 3 2 3 3 3 4 4 4 4 4 4 4 5 5 5 4 2 1 1
3 3 3 3 3 3 4 4 4 4 4 4 4 4 4 4 4 4 4 4 4 3 3 2 2 2 2 2 2 1 1 2 3 5 3 2 2 2 2 2 2 2 2 2 2 2 2 2 2 2 2 1 1 2 2 2 2 2 2 2 3 2 2 2 2 2 2 1 1 1 2 2 3 3 4 4 4 4 5 5 6 6 6 5 3 2
3 3 3 3 3 3 3 4 4 4 4 3 3 3 3 4 4 4 3 3 4 4 4 3 3 2 2 2 2 2 2 3 4 5 4 2 2 2 2 2 2 3 2 2 2 2 2 2 3 3 3 2 0 1 2 2 2 2 2 3 3 3 2 2 2 1 1 1 1 1 1 2 2 3 3 4 4 5 5 6 7 7 7 6 6 4
3 2 3 3 3 3 3 3 3 3 3 3 3 3 3 3 4 4 3 3 4 4 4 4 4 4 3 2 2 2 2 3 4 4 4 2 2 2 2 2 2 3 2 2 2 3 3 3 3 3 2 1 1 1 1 1 2 2 2 2 2 3 3 2 2 1 1 1 0 1 1 2 2 3 3 4 4 5 5 7 7 8 8 7 7 7
2 2 2 2 2 2 2 2 2 2 2 2 2 3 3 3 4 4 3 4 4 4 4 4 4 5 6 6 5 4 4 4 4 4 4 3 2 2 2 2 2 2 2 2 3 3 3 4 4 3 2 1 1 1 1 0 1 1 1 1 2 2 2 2 2 2 2 1 0 1 2 2 2 2 3 3 3 3 4 5 6 7 7 7 7 7
2 2 2 2 2 2 2 2 2 2 2 2 2 2 3 4 4 4 4 4 4 4 5 4 4 5 6 7 7 6 6 5 5 5 4 3 3 2 3 3 3 2 2 1 1 2 3 3 3 4 3 2 2 1 1 1 1 0 1 1 2 2 2 2 2 2 2 1 1 2 2 2 2 2 2 2 2 3 3 3 4 5 5 4 5 6
2 2 2 2 2 1 2 2 1 1 1 2 2 3 3 3 3 3 3 3 4 4 5 5 5 5 5 6 6 6 6 5 4 4 3 2 2 2 3 3 3 3 2 1 1 1 2 2 2 3 3 3 3 2 2 1 1 1 1 1 1 1 1 2 2 2 2 2 1 2 2 2 2 2 2 2 2 2 2 2 2 3 4 3 3 3
2 2 2 2 2 2 2 1 1 1 1 2 2 2 2 2 2 2 2 3 3 3 3 4 4 5 5 5 5 5 5 5 4 4 3 3 3 3 3 3 3 3 3 2 1 1 1 2 2 3 3 3 3 3 3 2 2 3 2 1 1 0 0 1 2 2 2 2 2 2 2 2 2 3 2 3 2 2 1 1 1 2 3 2 2 2
2 2 2 1 1 1 1 1 2 2 2 2 2 2 2 2 1 1 1 2 2 2 2 2 3 4 4 4 4 5 5 4 4 4 4 4 4 4 3 3 3 3 3 2 2 2 2 2 3 3 3 3 3 3 2 2 2 2 2 1 1 1 1 1 1 2 2 2 2 2 3 2 2 2 2 2 2 2 2 2 2 3 3 3 2 2
2 2 2 2 1 1 2 2 2 2 2 2 2 2 2 1 1 1 2 2 2 2 2 2 3 3 3 3 3 3 4 4 4 4 4 4 4 4 4 3 3 3 3 3 2 2 2 2 2 3 3 4 4 4 4 3 2 1 1 1 1 1 1 0 1 2 2 2 2 2 2 1 1 1 1 1 2 2 3 3 4 5 4 3 3 2
3 2 2 2 2 2 2 2 2 2 2 2 2 2 2 1 1 2 2 2 2 2 2 2 2 3 3 3 3 2 3 3 4 4 4 4 4 4 3 3 2 2 2 3 3 2 2 2 2 2 2 3 4 4 4 4 3 2 1 1 1 0 1 0 1 2 2 2 2 2 2 2 2 2 1 1 2 2 3 3 3 3 4 3 3 3
2 2 2 2 2 2 2 2 2 2 2 2 2 2 2 2 2 2 2 2 2 2 2 2 2 2 2 2 2 2 2 2 3 3 4 5 5 5 4 3 3 3 3 2 2 2 3 3 2 2 2 3 3 3 4 4 3 3 2 2 2 2 1 1 1 2 2 2 2 2 2 2 2 1 2 3 3 3 3 3 3 4 3 3 3 3
1 2 2 2 2 2 2 2 2 2 2 2 2 2 2 2 2 2 2 2 2 1 1 1 1 2 2 2 1 1 1 2 2 2 3 3 4 4 4 4 4 3 3 3 2 2 2 3 3 3 3 3 3 3 3 4 3 3 2 2 2 1 1 2 2 2 2 2 2 2 3 2 1 1 3 3 3 3 3 3 3 4 3 3 3 3
1 1 2 2 2 1 1 1 1 1 2 1 1 1 1 1 1 2 2 2 2 1 1 1 2 2 2 2 2 2 2 1 1 1 2 2 3 3 3 4 4 4 4 3 4 3 3 2 2 3 3 3 3 3 2 3 3 3 3 2 1 1 1 1 1 2 2 2 2 2 3 2 1 2 3 3 3 3 3 3 3 3 3 3 3 3
1 1 1 2 2 2 1 1 1 1 1 1 1 1 1 0 1 2 2 1 1 1 1 2 2 2 2 2 2 2 2 2 2 2 2 2 2 2 3 3 3 4 4 5 5 5 4 4 3 3 2 2 3 3 3 3 3 3 2 2 2 2 1 1 1 2 2 2 2 2 2 1 2 2 2 3 3 3 3 3 3 3 3 3 3 3
1 0 1 1 2 2 1 1 1 1 1 1 1 0 0 0 1 2 2 1 1 1 1 2 2 2 2 2 2 2 3 2 2 2 2 2 2 2 2 3 3 3 3 4 4 4 4 5 5 5 3 2 2 3 4 3 2 2 2 2 2 2 1 0 1 2 2 2 2 2 1 1 1 1 2 3 3 3 3 3 3 3 3 3 3 3
1 0 0 1 1 2 2 2 2 2 2 2 1 1 0 0 1 1 1 1 1 1 1 2 2 3 3 2 2 3 3 2 2 2 2 2 2 2 3 3 3 3 3 2 2 2 2 3 4 5 6 5 4 3 3 3 3 2 2 2 1 1 1 0 1 2 2 1 1 1 2 2 1 1 2 3 3 3 3 3 3 3 3 3 4 4
2 1 0 1 1 1 2 2 2 2 2 2 2 2 1 1 1 1 1 2 2 2 2 2 2 3 3 3 3 3 3 3 2 2 2 2 2 3 3 3 3 3 2 2 1 1 1 1 2 3 5 6 6 4 3 3 3 3 2 1 1 0 0 0 1 1 1 1 1 1 2 2 2 2 2 2 3 3 3 3 3 3 3 3 4 5
Wind_Direction
358 358 3 9 16 23 24 21 23 29 32 31 31 32 34 37 38 37 35 34 32 29 25 23 23 28 47 93 122 137 151 166 179 187 186 177 170 167 167 172 175 178 178 176 173 167 159 150 144 141 140 141 142 141 139 137 135 133 132 131 131 131 131 131 131 132 132 133 134 135 136 136 135 133 131 130 130 130 130 131 132 132 129 123 114 102
356 359 5 12 18 24 24 20 23 29 33 33 33 33 37 39 38 35 33 34 33 31 28 25 24 24 23 30 85 130 141 153 163 171 175 172 169 167 166 169 172 174 173 171 167 161 152 142 137 136 138 140 140 139 136 134 131 130 128 128 128 128 129 129 130 131 132 133 134 135 135 133 131 130 128 128 128 129 131 133 133 130 124 116 106 92
357 1 4 10 17 23 22 19 21 27 34 35 36 38 41 42 40 36 33 34 34 34 31 29 27 25 22 17 27 94 135 148 154 159 164 164 162 161 161 165 168 170 168 165 161 155 147 138 135 134 135 137 137 135 133 130 128 126 125 124 124 125 125 127 128 129 131 132 132 132 131 129 127 125 125 126 128 130 132 133 130 125 117 108 98 83
2 3 359 5 15 22 21 18 19 24 32 37 40 41 43 44 42 39 37 38 38 37 35 32 30 27 23 18 17 21 62 142 153 156 160 160 159 158 158 160 162 163 161 158 154 149 143 136 133 133 134 134 133 132 130 127 125 124 122 122 122 122 123 124 125 126 128 128 128 128 126 124 123 122 123 126 128 129 130 129 125 118 110 100 89 73
5 2 353 1 13 20 19 17 18 23 32 39 41 42 42 43 42 40 39 41 41 41 38 35 32 30 27 22 21 22 27 52 115 146 157 158 158 158 157 157 156 155 153 151 147 144 139 134 132 132 132 132 131 129 128 125 123 122 120 120 120 120 121 121 121 121 122 122 122 121 121 120 119 120 121 122 123 124 124 122 117 110 101 91 78 63
3 359 351 3 13 18 16 16 16 19 28 38 42 43 43 43 42 41 40 41 43 43 42 39 36 33 31 27 26 27 29 34 44 71 123 143 152 156 156 153 151 148 145 142 139 136 133 130 129 129 130 130 129 127 125 123 121 120 119 118 118 118 118 118 117 116 116 117 117 117 117 117 117 117 117 116 116 116 116 113 108 101 91 80 69 54
359 358 357 5 12 18 21 19 16 15 19 32 39 43 44 44 44 43 42 41 42 45 47 44 40 37 33 30 29 29 31 33 36 40 54 86 119 137 143 143 142 139 135 132 129 127 125 124 124 125 125 126 125 124 123 121 119 118 117 116 116 116 116 115 115 114 115 115 116 116 116 115 114 114 113 112 111 109 107 102 96 88 80 71 60 47
3 2 5 6 8 11 21 21 16 13 14 23 34 41 43 45 46 45 44 41 41 43 46 46 44 40 36 32 31 32 34 35 36 39 43 54 71 91 107 115 120 121 121 120 119 118 117 118 118 119 119 119 119 119 118 117 116 115 114 114 114 114 114 114 114 115 116 117 117 117 115 114 113 112 112 110 108 105 100 92 84 76 69 61 51 39
10 8 8 9 9 10 17 16 13 10 12 20 29 36 42 45 47 47 47 42 38 37 41 45 46 43 38 35 34 36 38 41 42 43 45 48 56 66 76 83 92 100 104 106 108 109 110 111 112 112 112 112 112 112 112 112 112 112 112 112 113 113 114 114 115 117 118 118 118 117 115 113 113 112 111 109 107 102 95 86 77 69 61 53 43 33
16 13 9 10 10 13 18 13 6 2 7 22 33 38 41 42 45 49 51 44 38 34 36 43 45 45 39 35 34 36 40 44 46 48 49 51 55 60 65 69 75 83 88 92 96 99 102 104 105 106 106 106 105 106 106 107 108 109 111 111 112 113 114 115 116 118 119 119 118 117 115 114 113 112 111 109 106 101 94 85 76 67 57 48 39 31
14 11 11 8 9 13 21 15 2 353 357 18 35 40 39 36 40 49 57 50 42 37 38 41 43 42 40 34 32 32 37 42 45 46 48 50 54 58 62 65 69 74 77 81 85 89 93 96 98 99 100 100 101 101 102 104 105 107 109 110 112 113 114 116 117 118 119 119 119 118 116 115 114 112 111 110 106 100 93 84 76 66 57 47 39 32
12 8 10 12 12 13 16 13 6 359 1 17 29 35 33 27 31 44 61 57 50 45 46 45 43 42 40 35 30 29 33 40 42 42 42 43 46 50 56 60 64 68 71 74 78 81 85 89 91 93 95 96 97 99 100 102 104 106 108 110 112 113 115 116 117 118 119 119 119 118 116 115 114 113 111 108 103 97 90 82 74 65 55 47 40 33
16 12 15 20 21 19 15 12 12 14 18 24 31 33 29 19 23 39 59 59 55 52 56 56 50 44 39 35 31 29 33 40 43 43 42 37 35 37 46 53 56 58 62 67 70 73 79 83 87 90 92 94 96 98 100 101 103 105 108 110 112 113 115 116 117 118 119 119 118 117 115 114 113 111 109 105 99 92 84 77 69 61 52 45 39 32
15 13 19 25 24 21 17 17 21 25 25 27 30 31 27 17 23 39 57 57 54 52 61 65 60 50 40 34 28 26 31 41 47 49 47 38 30 27 37 50 53 53 56 61 62 64 68 74 81 87 90 94 96 98 100 102 104 106 108 110 111 113 114 115 116 116 117 116 115 114 113 111 110 107 104 98 91 84 76 70 63 55 48 42 36 30
15 15 23 25 24 21 16 19 25 28 28 25 25 24 25 24 28 38 54 57 53 50 60 67 64 57 45 36 26 20 23 38 52 56 55 43 30 23 30 49 55 55 56 59 59 57 56 61 70 80 87 92 96 99 101 103 106 108 109 110 111 112 113 113 113 113 113 112 111 110 109 107 104 100 96 90 83 75 69 62 55 49 43 37 32 26
16 20 26 26 25 21 16 17 22 26 25 20 19 22 28 28 26 29 44 47 43 40 52 64 65 59 45 35 26 20 17 33 51 62 65 51 33 21 24 49 59 59 56 58 58 55 51 55 64 74 84 92 96 99 102 104 107 109 110 110 111 111 111 111 111 111 110 109 108 106 104 101 97 93 88 82 75 68 60 54 48 43 37 32 26 21
20 23 25 26 25 21 14 16 20 21 20 18 20 24 32 29 24 20 24 22 21 27 35 54 63 63 48 24 15 12 10 24 47 64 70 59 39 21 20 47 63 65 61 59 58 56 54 55 60 70 82 91 96 99 102 105 108 109 110 110 110 110 110 110 109 109 109 107 105 103 100 96 92 87 81 74 67 60 54 47 42 37 31 26 21 17
23 22 21 25 23 18 13 15 16 15 14 17 20 24 30 28 28 27 29 30 33 37 38 42 50 59 66 34 4 354 355 13 45 68 71 65 48 25 21 43 62 68 67 61 56 53 53 56 61 72 84 92 96 99 102 105 107 109 110 109 109 109 109 108 108 108 107 105 103 100 96 92 87 81 75 68 61 54 48 42 37 31 26 20 15 12
24 21 21 19 15 12 15 17 15 12 10 9 15 24 31 30 32 36 38 40 45 49 54 55 54 55 63 56 10 343 343 6 48 71 73 67 52 30 20 41 59 67 68 63 58 54 53 59 70 79 86 91 95 98 101 103 105 107 108 107 107 106 106 105 105 104 103 102 99 96 91 87 81 75 68 61 55 49 44 38 32 26 20 16 12 9
26 23 19 9 3 8 18 18 15 11 7 4 15 32 40 37 39 41 43 45 48 53 62 66 64 59 59 54 20 350 340 3 48 69 73 69 55 34 19 39 58 66 67 62 55 51 54 59 70 79 85 88 92 95 98 100 102 103 104 103 103 102 101 100 100 99 98 96 94 90 86 80 75 68 62 56 51 46 41 35 28 23 18 12 9 7
30 24 14 6 5 11 18 15 11 8 4 5 19 38 45 46 47 48 48 53 57 60 64 67 65 59 58 56 26 354 340 5 44 71 77 69 55 36 18 33 53 64 66 59 52 49 53 58 64 74 81 86 90 93 95 97 98 99 99 99 98 97 96 95 94 93 92 90 88 84 79 75 69 63 57 52 47 43 38 31 26 21 16 11 8 5
36 25 10 11 17 25 25 18 12 11 10 17 27 39 42 53 58 61 59 64 68 70 72 73 73 70 70 66 45 9 356 10 30 62 83 73 58 38 13 27 48 60 61 53 44 40 43 50 60 72 81 85 87 90 92 93 94 95 94 94 93 92 91 91 90 89 88 86 83 79 75 71 65 60 54 49 44 40 35 30 25 20 16 12 8 5
45 34 20 24 29 33 33 27 21 19 21 34 42 47 48 62 73 78 77 79 83 86 88 91 89 81 70 64 48 30 19 15 17 41 79 78 66 42 10 28 50 58 56 47 38 34 36 40 46 58 74 81 84 85 87 87 88 87 87 86 86 85 85 85 84 84 83 81 78 75 72 67 62 57 52 46 41 36 33 30 26 22 18 13 9 5
45 42 36 38 42 45 46 43 38 35 37 46 52 57 62 72 80 86 90 94 98 101 103 99 86 70 56 50 43 32 21 12 13 35 77 82 74 51 14 35 56 63 57 45 39 38 39 37 30 28 42 67 75 79 80 80 80 80 80 80 80 81 80 80 80 79 78 76 75 72 69 65 60 55 49 43 38 34 34 31 28 25 20 16 12 7
49 50 51 56 61 64 67 66 64 61 58 59 62 67 73 82 88 93 97 99 101 101 98 86 75 63 46 40 35 26 12 9 13 35 81 89 81 58 22 38 60 69 64 48 42 41 44 38 28 19 15 38 56 67 72 75 76 77 78 79 80 80 80 80 79 77 76 74 73 71 68 64 60 54 48 42 39 38 39 36 32 27 22 17 12 7
56 59 62 67 71 74 77 78 77 76 74 72 70 70 74 84 90 93 91 91 94 95 90 82 75 64 43 37 29 17 359 2 11 30 73 94 93 74 32 35 60 75 76 58 45 42 45 38 28 19 15 16 29 43 55 62 68 73 78 80 81 82 82 80 79 77 75 74 73 71 68 64 60 54 47 43 43 45 46 40 35 28 21 15 8 4
61 63 66 70 73 76 78 79 79 78 77 76 76 74 70 72 79 82 82 83 87 91 92 92 88 78 50 40 27 9 351 360 8 19 44 90 95 89 58 51 69 81 83 68 53 47 49 42 29 18 14 7 7 17 34 42 50 60 70 75 78 79 79 77 76 75 74 73 73 71 69 66 61 56 50 48 50 53 54 45 36 26 16 8 1 354
59 61 63 65 68 71 73 73 72 70 68 68 69 71 73 74 79 84 90 79 68 76 89 98 99 91 66 47 21 358 355 6 3 359 14 76 89 92 93 84 85 88 89 78 63 53 51 44 31 18 10 6 4 9 19 26 32 40 49 59 66 70 70 70 70 71 71 72 71 71 70 67 63 58 53 53 56 57 56 48 36 23 6 357 340 327
55 57 58 59 59 60 59 57 55 53 52 53 54 56 62 75 89 96 104 52 52 68 83 88 90 91 90 80 50 16 7 358 341 335 6 73 85 94 112 111 111 108 101 93 73 55 47 39 29 18 7 5 4 5 7 15 19 23 27 41 51 57 60 60 61 64 66 67 68 68 68 67 63 59 55 55 56 57 56 48 38 21 352 338 327 322
48 50 50 49 49 49 48 45 44 44 45 47 49 51 53 63 76 84 75 52 61 78 92 93 97 103 110 101 78 38 358 312 297 305 32 79 95 113 134 140 152 155 129 111 88 58 40 28 21 15 6 3 1 359 358 5 7 7 9 26 38 46 50 49 50 53 57 59 61 61 61 59 56 53 51 53 54 54 52 45 38 17 331 324 331 337
44 46 44 41 41 42 44 44 43 42 42 44 46 47 48 53 60 63 58 60 72 89 104 110 116 122 127 117 107 103 241 249 244 229 81 92 113 138 154 157 170 183 107 104 105 102 78 25 9 7 2 359 356 354 355 1 2 1 359 15 29 36 39 38 39 41 45 47 48 48 46 43 42 44 46 47 48 47 44 38 35 25 336 340 348 351
48 50 48 43 41 42 44 44 43 42 41 40 40 40 43 46 49 52 51 58 73 90 105 115 119 118 102 92 100 128 177 197 192 176 126 106 116 140 160 155 151 127 29 39 79 109 118 111 28 352 346 347 345 345 348 358 2 3 5 21 25 27 28 28 29 32 35 35 34 32 28 25 28 33 38 41 41 40 37 32 33 38 39 2 358 353
52 51 48 48 49 48 46 44 43 43 41 39 37 37 38 40 42 45 46 49 58 77 98 110 111 101 73 65 66 72 98 162 173 171 154 117 115 135 159 143 126 100 53 33 46 74 100 115 122 102 334 326 324 329 338 355 4 12 17 32 31 24 18 18 20 23 26 26 22 16 10 11 15 21 30 33 35 34 33 33 33 34 39 28 358 347
52 47 43 44 48 50 49 47 45 44 41 39 37 37 38 38 39 41 43 44 48 58 76 95 105 106 96 81 70 58 18 176 173 169 156 121 114 132 151 144 135 120 97 68 61 66 75 90 109 120 98 328 323 325 332 345 357 7 22 42 44 31 13 9 8 8 11 15 9 360 354 351 358 8 20 24 27 30 33 36 35 33 31 29 15 352
52 44 36 35 40 45 48 47 46 44 42 38 36 35 39 41 41 41 43 46 49 52 56 67 85 106 119 121 127 140 189 184 175 169 154 125 114 126 144 154 151 141 126 118 106 98 94 101 118 127 124 88 339 325 323 324 335 353 23 47 51 43 20 8 359 352 345 347 344 339 335 334 343 355 7 14 19 26 34 38 37 34 30 29 29 24
53 44 34 33 35 40 45 46 45 44 43 39 35 34 39 43 44 43 41 47 53 57 58 56 59 73 105 131 147 159 173 170 167 164 152 129 113 117 131 156 158 150 135 132 127 121 116 120 126 131 128 121 107 309 309 315 328 356 27 41 42 37 23 10 356 339 320 311 322 340 335 341 347 353 358 6 13 21 30 36 35 33 27 29 32 35
56 45 35 34 37 40 45 45 45 46 45 40 37 37 42 47 47 45 41 43 50 55 59 56 52 49 49 76 109 131 141 145 148 147 135 116 103 106 118 143 155 154 140 142 141 135 125 125 130 134 132 132 150 197 259 312 339 5 24 29 31 30 18 3 348 326 297 281 44 45 10 5 1 359 358 2 6 14 24 29 29 27 23 25 31 38
63 52 39 35 38 39 43 45 47 49 51 51 50 50 53 56 54 50 46 46 49 53 57 53 50 46 42 49 55 64 81 102 111 112 101 93 92 100 112 125 140 149 139 146 147 143 135 136 143 151 154 154 151 145 142 103 31 21 18 16 25 29 21 1 346 328 307 302 52 62 41 20 9 2 358 354 356 4 18 19 19 18 17 18 26 35
72 68 55 48 47 48 53 58 58 57 57 65 70 72 70 67 62 58 54 53 55 57 59 59 55 49 43 46 50 57 66 77 83 85 80 77 82 97 112 121 131 137 132 131 133 139 142 147 153 158 159 152 140 122 100 88 88 85 43 19 19 22 23 6 349 335 325 332 26 48 37 14 8 7 4 357 6 14 20 11 10 12 13 7 13 24
80 73 66 61 62 70 81 85 83 73 60 67 72 75 73 69 64 58 56 60 62 64 65 66 64 58 50 48 49 51 54 59 64 66 66 64 73 92 108 121 130 135 132 109 94 105 123 133 137 140 141 139 139 140 135 134 154 156 128 75 41 17 7 3 348 334 330 347 21 42 34 14 10 14 14 18 23 24 17 1 360 8 16 14 13 14
101 93 81 69 66 72 81 87 83 67 56 55 55 55 60 65 65 62 57 60 60 61 66 70 68 63 54 49 46 44 44 48 51 55 61 68 78 90 103 118 129 134 133 111 89 84 97 113 119 123 125 127 130 133 137 151 161 162 141 121 115 125 333 6 352 341 339 357 13 26 32 27 22 18 14 20 19 12 352 341 358 15 26 23 25 27
95 95 90 80 69 63 66 71 67 61 53 51 48 47 50 60 69 74 70 62 56 53 54 69 72 68 58 49 43 39 39 42 48 57 67 75 85 96 109 122 132 136 132 116 96 81 85 110 124 132 139 138 136 134 136 144 148 144 125 123 128 125 61 9 343 338 351 4 8 12 23 26 18 7 3 13 11 4 1 14 32 38 37 25 21 25
48 55 58 58 62 66 73 67 59 51 47 48 45 39 29 39 66 87 85 77 72 69 66 72 77 76 69 56 42 32 29 31 37 49 61 73 85 97 110 120 129 135 132 121 108 92 78 93 111 131 145 144 143 142 145 143 133 104 73 103 136 143 131 317 317 324 342 356 5 9 11 2 336 317 321 7 25 26 24 35 40 42 40 31 22 19
36 39 40 39 39 43 49 49 44 41 46 52 45 32 14 21 51 79 86 85 86 85 80 78 79 78 74 64 51 38 27 25 29 37 51 68 77 83 88 92 96 101 110 120 124 122 104 98 104 119 132 135 137 139 142 141 136 120 72 26 14 20 146 225 305 320 331 341 346 345 337 308 288 283 312 43 45 41 36 35 34 31 29 25 23 23
59 58 52 46 44 47 51 46 43 43 48 51 44 30 12 15 39 71 93 96 96 92 88 89 86 81 72 65 58 50 36 26 25 28 37 55 65 70 69 67 64 67 74 91 113 128 131 132 133 129 120 119 125 132 139 140 135 123 96 62 40 25 8 354 341 335 333 335 332 323 309 291 285 306 63 63 56 48 41 38 35 31 24 20 21 24
61 70 69 60 57 60 64 61 57 53 53 51 43 29 14 17 36 68 95 101 100 94 82 77 81 92 105 111 101 79 56 40 29 26 27 37 44 49 56 59 62 64 66 65 68 80 105 128 137 137 128 118 115 119 129 134 132 123 105 87 73 53 25 11 358 341 327 321 315 309 301 297 313 61 77 72 63 54 44 41 36 31 22 19 20 23
56 88 95 88 81 74 69 68 67 68 67 60 45 26 16 26 47 70 85 93 98 96 79 66 76 95 114 122 120 109 98 87 68 54 45 47 52 57 60 63 66 68 73 71 67 63 63 77 103 123 132 130 127 123 119 119 119 119 119 115 105 84 56 19 352 331 314 305 302 303 306 323 30 75 83 79 70 59 48 41 35 30 24 21 23 26
22 112 122 118 112 106 100 99 96 94 94 83 61 37 17 56 100 104 92 92 95 93 87 81 88 96 106 110 116 122 123 120 111 101 90 82 78 76 76 76 74 74 75 77 76 74 68 63 63 72 99 123 134 137 134 120 110 109 115 115 109 97 81 26 336 317 302 298 298 304 319 6 59 82 89 82 75 64 54 44 35 28 23 24 27 33
326 208 153 136 132 132 139 143 140 134 134 128 112 88 359 139 130 126 113 104 97 93 96 107 112 114 116 118 124 126 127 123 122 120 118 115 110 104 98 94 92 89 85 82 80 77 73 65 59 56 56 70 105 128 132 121 110 100 95 89 89 92 92 32 321 306 296 300 310 327 358 38 60 73 85 86 84 77 66 53 40 32 24 26 32 39
321 299 174 149 148 154 162 164 163 160 160 154 151 149 159 72 82 94 103 101 96 96 106 121 126 128 130 135 136 137 134 132 132 136 141 138 131 125 119 116 113 110 105 95 87 80 74 66 59 56 57 60 73 98 121 122 114 100 82 72 71 81 103 118 296 296 295 307 332 2 31 39 34 35 60 84 89 87 77 63 50 38 29 30 36 41
326 318 225 165 167 172 175 175 174 173 171 170 167 163 159 137 104 90 90 97 97 100 107 121 130 135 139 144 145 146 146 145 150 155 159 155 145 137 132 133 133 132 129 122 113 101 89 82 65 55 53 57 63 77 114 127 122 111 91 75 58 53 126 214 266 285 296 323 3 25 35 36 32 30 44 78 91 91 85 72 59 46 36 36 39 44